Powrót do katalogu

STARLINK-37047

AktywnyŁącznośćVLEO
NORAD 68957·PAYLOAD·🇺🇸 United States

Wystrzelony May 1, 2026 z Cape Canaveral Space Force Station

Loading…

Następne Przeloty (najbliższe 24 godziny)

TLE

ŚwieżeSource: CelesTrak SupGP

Epoka: Sep 14, 2026, 22:29 UTC

1 68957C 26099G   26257.93729167 -.00008334  00000+0 -24628-3 0  2578
2 68957  53.1576 101.9417 0001261  84.4681  93.9095 15.34388938    16

Śledź STARLINK-37047 w czasie rzeczywistym z AllMySat

Download on the App Store